AFR302 LFPG-KSAN

Flight info

Callsign AFR302
Flight time N/A
Altitude 36000
Route ATREX DCT VESAN DCT RATUK DCT SOVAT L613 SANDY DCT OKSAW DCT TEWXI DCT LIPGO DCT ETARI/M084F380 NATA JANJO/N0485F380 DCT HENDY DCT YSP/N0477F400 DCT DLH DCT HON DCT BFF J157 LAR DCT JNC DCT EED BARET5
Aircraft A359/H-SDE2E3GHIJ3J4J5LM1ORWXY/LB1D1

Departure

Time N/A
Airport Charles de Gaulle International Airport (LFPG)

Arrival

Time 2026-04-23 22:37
Airport San Diego International Airport (KSAN)
Time Latitude Longitude Altitude Speed Heading
2026-04-23 19:56 44.28615 -98.65096 39553 ft 457 kts 235°
2026-04-23 19:56 44.26913 -98.68832 39562 ft 457 kts 235°
2026-04-23 19:57 44.23504 -98.76300 39565 ft 457 kts 235°
2026-04-23 19:57 44.20084 -98.83768 39573 ft 457 kts 235°
2026-04-23 19:58 44.16658 -98.91233 39572 ft 457 kts 235°
2026-04-23 19:58 44.13228 -98.98684 39581 ft 457 kts 235°
2026-04-23 19:59 44.09790 -99.06135 39583 ft 457 kts 235°
2026-04-23 19:59 44.06351 -99.13569 39596 ft 457 kts 235°
2026-04-23 20:00 44.02908 -99.20992 39595 ft 457 kts 235°
2026-04-23 20:00 43.99455 -99.28418 39606 ft 457 kts 235°
2026-04-23 20:01 43.95999 -99.35833 39603 ft 457 kts 235°
2026-04-23 20:01 43.92537 -99.43239 39611 ft 458 kts 235°
2026-04-23 20:02 43.89067 -99.50645 39614 ft 458 kts 235°
2026-04-23 20:02 43.85597 -99.58033 39620 ft 457 kts 235°
2026-04-23 20:03 43.82121 -99.65414 39624 ft 457 kts 235°
2026-04-23 20:03 43.78642 -99.72781 39624 ft 458 kts 235°
2026-04-23 20:04 43.75150 -99.80160 39622 ft 458 kts 235°
2026-04-23 20:04 43.71676 -99.87480 39635 ft 458 kts 236°
2026-04-23 20:05 43.68747 -99.93639 39632 ft 457 kts 236°
2026-04-23 20:05 43.64721 -100.02082 39645 ft 458 kts 236°
2026-04-23 20:06 43.61215 -100.09416 39646 ft 458 kts 236°
2026-04-23 20:06 43.57705 -100.16740 39668 ft 457 kts 235°
2026-04-23 20:07 43.54191 -100.24054 39672 ft 458 kts 236°
2026-04-23 20:07 43.50674 -100.31353 39671 ft 457 kts 236°
2026-04-23 20:08 43.47155 -100.38642 39672 ft 457 kts 236°
2026-04-23 20:08 43.43634 -100.45915 39685 ft 457 kts 236°
2026-04-23 20:09 43.40109 -100.53180 39699 ft 457 kts 236°
2026-04-23 20:09 43.36575 -100.60443 39715 ft 457 kts 236°
2026-04-23 20:10 43.33636 -100.66471 39725 ft 457 kts 236°
2026-04-23 20:10 43.29492 -100.74949 39740 ft 458 kts 236°
2026-04-23 20:11 43.25934 -100.82210 39740 ft 459 kts 235°
2026-04-23 20:11 43.22366 -100.89471 39740 ft 459 kts 235°
2026-04-23 20:12 43.18798 -100.96718 39738 ft 459 kts 235°
2026-04-23 20:12 43.15223 -101.03957 39729 ft 459 kts 235°
2026-04-23 20:13 43.11647 -101.11183 39719 ft 459 kts 235°
2026-04-23 20:13 43.08060 -101.18414 39702 ft 459 kts 235°
2026-04-23 20:14 43.04492 -101.25588 39698 ft 459 kts 235°
2026-04-23 20:14 43.00894 -101.32805 39703 ft 460 kts 235°
2026-04-23 20:15 42.97293 -101.40011 39701 ft 459 kts 235°
2026-04-23 20:15 42.94274 -101.46038 39703 ft 459 kts 235°
2026-04-23 20:16 42.90666 -101.53226 39691 ft 459 kts 235°
2026-04-23 20:16 42.87060 -101.60393 39698 ft 459 kts 235°
2026-04-23 20:17 42.83460 -101.67528 39700 ft 459 kts 235°
2026-04-23 20:17 42.79814 -101.74740 39706 ft 460 kts 235°
2026-04-23 20:18 42.76207 -101.81857 39729 ft 460 kts 235°
2026-04-23 20:18 42.72568 -101.89019 39741 ft 460 kts 235°
2026-04-23 20:19 42.68929 -101.96165 39756 ft 460 kts 235°
2026-04-23 20:19 42.65280 -102.03312 39762 ft 460 kts 235°
2026-04-23 20:20 42.61628 -102.10450 39755 ft 460 kts 235°
2026-04-23 20:20 42.57974 -102.17575 39744 ft 460 kts 235°
2026-04-23 20:21 42.54321 -102.24679 39688 ft 460 kts 235°
2026-04-23 20:21 42.50653 -102.31795 39685 ft 460 kts 235°
2026-04-23 20:22 42.46990 -102.38886 39696 ft 460 kts 235°
2026-04-23 20:22 42.43320 -102.45973 39693 ft 459 kts 235°
2026-04-23 20:23 42.39651 -102.53044 39700 ft 459 kts 235°
2026-04-23 20:23 42.35973 -102.60112 39700 ft 459 kts 235°
2026-04-23 20:24 42.32293 -102.67170 39707 ft 459 kts 235°
2026-04-23 20:24 42.28602 -102.74232 39709 ft 460 kts 235°
2026-04-23 20:25 42.24905 -102.81288 39723 ft 461 kts 235°
2026-04-23 20:25 42.21200 -102.88342 39724 ft 461 kts 235°
2026-04-23 20:26 42.17486 -102.95398 39790 ft 461 kts 235°
2026-04-23 20:26 42.13772 -103.02437 39784 ft 461 kts 235°
2026-04-23 20:27 42.10073 -103.09432 39774 ft 461 kts 235°
2026-04-23 20:27 42.06346 -103.16463 39737 ft 461 kts 235°
2026-04-23 20:28 42.02612 -103.23491 39757 ft 462 kts 235°
2026-04-23 20:28 41.98872 -103.30513 39774 ft 462 kts 235°
2026-04-23 20:29 41.95125 -103.37533 39804 ft 462 kts 235°
2026-04-23 20:29 41.91392 -103.44543 39828 ft 462 kts 236°
2026-04-23 20:30 41.88518 -103.52213 39850 ft 461 kts 250°
2026-04-23 20:30 41.85496 -103.64442 39842 ft 460 kts 252°
2026-04-23 20:31 41.83580 -103.72635 39838 ft 460 kts 252°
2026-04-23 20:31 41.81640 -103.80818 39817 ft 460 kts 252°
2026-04-23 20:32 41.79680 -103.88982 39798 ft 460 kts 252°
2026-04-23 20:32 41.77712 -103.97132 39779 ft 459 kts 252°
2026-04-23 20:33 41.75742 -104.05258 39762 ft 459 kts 252°
2026-04-23 20:33 41.73770 -104.13370 39767 ft 458 kts 252°
2026-04-23 20:34 41.71792 -104.21476 39767 ft 457 kts 252°
2026-04-23 20:34 41.69812 -104.29563 39771 ft 457 kts 252°
2026-04-23 20:35 41.67827 -104.37644 39785 ft 457 kts 252°
2026-04-23 20:35 41.65837 -104.45716 39788 ft 457 kts 252°
2026-04-23 20:36 41.63842 -104.53785 39794 ft 457 kts 252°
2026-04-23 20:36 41.61839 -104.61852 39792 ft 457 kts 252°
2026-04-23 20:37 41.59831 -104.69915 39795 ft 457 kts 252°
2026-04-23 20:37 41.57819 -104.77966 39796 ft 457 kts 252°
2026-04-23 20:38 41.55810 -104.85977 39792 ft 457 kts 251°
2026-04-23 20:38 41.53774 -104.94066 39788 ft 457 kts 252°
2026-04-23 20:39 41.51741 -105.02117 39790 ft 457 kts 252°
2026-04-23 20:39 41.49720 -105.10096 39785 ft 457 kts 252°
2026-04-23 20:40 41.47679 -105.18124 39785 ft 457 kts 252°
2026-04-23 20:40 41.45632 -105.26150 39794 ft 457 kts 252°
2026-04-23 20:41 41.43584 -105.34153 39823 ft 455 kts 252°
2026-04-23 20:41 41.41542 -105.42105 39854 ft 453 kts 252°
2026-04-23 20:42 41.39499 -105.50039 39883 ft 453 kts 252°
2026-04-23 20:42 41.37449 -105.57970 39913 ft 453 kts 252°
2026-04-23 20:43 41.35392 -105.65890 39922 ft 453 kts 252°
2026-04-23 20:43 41.32559 -105.73329 39915 ft 453 kts 237°
2026-04-23 20:44 41.28482 -105.79744 39911 ft 455 kts 230°
2026-04-23 20:44 41.24142 -105.85873 39885 ft 455 kts 230°
2026-04-23 20:45 41.19769 -105.91961 39857 ft 455 kts 230°
2026-04-23 20:45 41.15421 -105.98050 39810 ft 455 kts 230°
2026-04-23 20:46 41.11106 -106.04113 39805 ft 454 kts 230°
2026-04-23 20:46 41.06746 -106.10236 39836 ft 453 kts 230°
2026-04-23 20:47 41.02439 -106.16270 39832 ft 454 kts 230°
2026-04-23 20:47 40.98094 -106.22346 39852 ft 455 kts 230°
2026-04-23 20:48 40.93734 -106.28428 39849 ft 455 kts 230°
2026-04-23 20:48 40.89381 -106.34487 39848 ft 455 kts 230°
2026-04-23 20:49 40.85027 -106.40536 39867 ft 454 kts 230°
2026-04-23 20:49 40.80671 -106.46573 39869 ft 453 kts 230°
2026-04-23 20:50 40.76324 -106.52589 39888 ft 453 kts 230°
2026-04-23 20:50 40.71974 -106.58595 39906 ft 452 kts 230°
2026-04-23 20:51 40.67628 -106.64583 39942 ft 452 kts 230°
2026-04-23 20:51 40.63276 -106.70571 39959 ft 452 kts 230°
2026-04-23 20:52 40.58918 -106.76553 39975 ft 453 kts 230°
2026-04-23 20:52 40.54546 -106.82541 39980 ft 453 kts 230°
2026-04-23 20:53 40.50178 -106.88511 39940 ft 453 kts 230°
2026-04-23 20:53 40.45813 -106.94465 39961 ft 452 kts 230°
2026-04-23 20:54 40.41446 -107.00410 39970 ft 452 kts 230°
2026-04-23 20:54 40.37081 -107.06343 39972 ft 452 kts 230°
2026-04-23 20:55 40.32736 -107.12236 39975 ft 452 kts 230°
2026-04-23 20:55 40.28360 -107.18160 39967 ft 452 kts 230°
2026-04-23 20:56 40.23982 -107.24072 39951 ft 452 kts 230°
2026-04-23 20:56 40.19606 -107.29971 39939 ft 451 kts 230°
2026-04-23 20:57 40.15235 -107.35851 39926 ft 451 kts 230°
2026-04-23 20:57 40.10848 -107.41742 39920 ft 451 kts 230°
2026-04-23 20:58 40.06471 -107.47609 39920 ft 451 kts 230°
2026-04-23 20:58 40.02098 -107.53457 39921 ft 451 kts 230°
2026-04-23 20:59 39.97721 -107.59301 39908 ft 450 kts 230°
2026-04-23 20:59 39.93355 -107.65117 39904 ft 448 kts 230°
2026-04-23 21:00 39.89740 -107.69924 39906 ft 448 kts 230°
2026-04-23 21:00 39.85374 -107.75721 39902 ft 447 kts 230°
2026-04-23 21:01 39.81022 -107.81485 39948 ft 446 kts 230°
2026-04-23 21:01 39.76666 -107.87248 39926 ft 446 kts 230°
2026-04-23 21:02 39.72310 -107.92998 39886 ft 446 kts 230°
2026-04-23 21:02 39.67964 -107.98723 39885 ft 444 kts 230°
2026-04-23 21:03 39.63628 -108.04424 39893 ft 443 kts 230°
2026-04-23 21:03 39.59293 -108.10114 39894 ft 443 kts 230°
2026-04-23 21:04 39.54961 -108.15789 39890 ft 443 kts 230°
2026-04-23 21:04 39.50651 -108.21425 39898 ft 443 kts 230°
2026-04-23 21:05 39.46314 -108.27084 39882 ft 443 kts 230°
2026-04-23 21:05 39.41971 -108.32741 39883 ft 442 kts 230°
2026-04-23 21:06 39.37649 -108.38358 39895 ft 440 kts 230°
2026-04-23 21:06 39.33339 -108.43951 39926 ft 439 kts 230°
2026-04-23 21:07 39.29028 -108.49536 39948 ft 438 kts 230°
2026-04-23 21:07 39.24723 -108.55103 39963 ft 438 kts 230°
2026-04-23 21:08 39.20409 -108.60673 39967 ft 438 kts 230°
2026-04-23 21:08 39.16096 -108.66229 39962 ft 438 kts 230°
2026-04-23 21:09 39.11785 -108.71773 39955 ft 438 kts 230°
2026-04-23 21:09 39.07464 -108.77318 39892 ft 438 kts 230°
2026-04-23 21:10 39.03256 -108.82967 39892 ft 435 kts 234°
2026-04-23 21:10 38.99283 -108.88824 39909 ft 435 kts 233°
2026-04-23 21:11 38.95282 -108.94646 39908 ft 435 kts 233°
2026-04-23 21:11 38.91262 -109.00449 39907 ft 435 kts 233°
2026-04-23 21:12 38.87235 -109.06241 39916 ft 434 kts 233°
2026-04-23 21:12 38.83245 -109.11965 39919 ft 432 kts 233°
2026-04-23 21:13 38.79233 -109.17710 39918 ft 432 kts 233°
2026-04-23 21:13 38.75213 -109.23455 39931 ft 433 kts 233°
2026-04-23 21:14 38.71195 -109.29187 39927 ft 433 kts 233°
2026-04-23 21:14 38.67175 -109.34913 39940 ft 432 kts 233°
2026-04-23 21:15 38.63152 -109.40632 39931 ft 432 kts 233°
2026-04-23 21:15 38.59125 -109.46345 39918 ft 432 kts 233°
2026-04-23 21:16 38.55109 -109.52032 39935 ft 430 kts 233°
2026-04-23 21:16 38.51099 -109.57701 39935 ft 430 kts 233°
2026-04-23 21:17 38.47092 -109.63356 39936 ft 429 kts 233°
2026-04-23 21:17 38.43084 -109.69002 39927 ft 429 kts 233°
2026-04-23 21:18 38.39072 -109.74644 39928 ft 429 kts 233°
2026-04-23 21:18 38.35055 -109.80282 39915 ft 429 kts 233°
2026-04-23 21:19 38.31058 -109.85881 39909 ft 428 kts 233°
2026-04-23 21:19 38.27042 -109.91496 39924 ft 427 kts 233°
2026-04-23 21:20 38.23041 -109.97084 39923 ft 427 kts 233°
2026-04-23 21:20 38.19041 -110.02661 39925 ft 427 kts 233°
2026-04-23 21:21 38.15034 -110.08235 39923 ft 427 kts 233°
2026-04-23 21:21 38.11025 -110.13804 39900 ft 427 kts 233°
2026-04-23 21:22 38.07018 -110.19359 39925 ft 426 kts 233°
2026-04-23 21:22 38.03040 -110.24865 39918 ft 426 kts 233°
2026-04-23 21:23 37.99039 -110.30393 39915 ft 425 kts 233°
2026-04-23 21:23 37.95053 -110.35890 39913 ft 423 kts 233°
2026-04-23 21:24 37.91065 -110.41381 39910 ft 423 kts 233°
2026-04-23 21:24 37.87084 -110.46854 39913 ft 423 kts 233°
2026-04-23 21:25 37.83094 -110.52330 39911 ft 423 kts 233°
2026-04-23 21:25 37.79106 -110.57790 39914 ft 423 kts 233°
2026-04-23 21:26 37.75119 -110.63243 39911 ft 423 kts 233°
2026-04-23 21:26 37.71126 -110.68694 39876 ft 422 kts 233°
2026-04-23 21:27 37.67143 -110.74121 39900 ft 420 kts 233°
2026-04-23 21:27 37.63174 -110.79522 39900 ft 420 kts 233°
2026-04-23 21:28 37.59196 -110.84926 39896 ft 420 kts 233°
2026-04-23 21:28 37.55221 -110.90315 39891 ft 420 kts 233°
2026-04-23 21:29 37.51238 -110.95708 39893 ft 420 kts 233°
2026-04-23 21:29 37.47251 -111.01095 39884 ft 420 kts 233°
2026-04-23 21:30 37.43265 -111.06473 39890 ft 420 kts 233°
2026-04-23 21:30 37.39313 -111.11794 39887 ft 419 kts 233°
2026-04-23 21:31 37.35343 -111.17130 39882 ft 417 kts 233°
2026-04-23 21:31 37.31382 -111.22448 39886 ft 417 kts 233°
2026-04-23 21:32 37.27416 -111.27764 39876 ft 417 kts 233°
2026-04-23 21:32 37.23499 -111.33005 39894 ft 417 kts 233°
2026-04-23 21:33 37.19526 -111.38311 39920 ft 417 kts 233°
2026-04-23 21:33 37.15554 -111.43607 39937 ft 417 kts 233°
2026-04-23 21:34 37.11652 -111.48804 39926 ft 417 kts 233°
2026-04-23 21:34 37.07679 -111.54084 39964 ft 416 kts 233°
2026-04-23 21:35 37.03708 -111.59354 39864 ft 416 kts 233°
2026-04-23 21:35 36.99739 -111.64613 39869 ft 416 kts 233°
2026-04-23 21:36 36.93778 -111.72495 39866 ft 416 kts 233°
2026-04-23 21:37 36.89836 -111.77697 39879 ft 416 kts 233°
2026-04-23 21:37 36.87847 -111.80318 39730 ft 416 kts 233°
2026-04-23 21:37 36.85851 -111.82946 39226 ft 417 kts 233°
2026-04-23 21:37 36.83854 -111.85575 38619 ft 417 kts 233°
2026-04-23 21:38 36.81857 -111.88197 38058 ft 413 kts 233°
2026-04-23 21:38 36.79904 -111.90755 37873 ft 401 kts 233°
2026-04-23 21:38 36.77990 -111.93264 37881 ft 399 kts 233°
2026-04-23 21:39 36.74121 -111.98353 37905 ft 410 kts 233°
2026-04-23 21:39 36.70136 -112.03575 37905 ft 419 kts 233°
2026-04-23 21:40 36.66120 -112.08818 37912 ft 418 kts 233°
2026-04-23 21:40 36.62106 -112.14054 37924 ft 418 kts 233°
2026-04-23 21:41 36.58113 -112.19254 37920 ft 418 kts 233°
2026-04-23 21:41 36.54099 -112.24475 37933 ft 418 kts 233°
2026-04-23 21:42 36.50083 -112.29689 37908 ft 418 kts 232°
2026-04-23 21:42 36.46052 -112.34917 37940 ft 420 kts 232°
2026-04-23 21:43 36.42009 -112.40150 37938 ft 420 kts 232°
2026-04-23 21:43 36.37962 -112.45380 37942 ft 420 kts 232°
2026-04-23 21:44 36.33909 -112.50609 37939 ft 422 kts 232°
2026-04-23 21:44 36.29840 -112.55851 37932 ft 422 kts 232°
2026-04-23 21:45 36.25762 -112.61093 37934 ft 422 kts 232°
2026-04-23 21:45 36.21688 -112.66325 37931 ft 422 kts 232°
2026-04-23 21:46 36.17610 -112.71550 37936 ft 422 kts 232°
2026-04-23 21:46 36.13532 -112.76769 37926 ft 422 kts 232°
2026-04-23 21:47 36.09451 -112.81987 37924 ft 423 kts 232°
2026-04-23 21:47 36.06046 -112.86333 37915 ft 424 kts 232°
2026-04-23 21:48 36.01280 -112.92405 37928 ft 424 kts 232°
2026-04-23 21:48 35.97829 -112.96795 37908 ft 424 kts 232°
2026-04-23 21:49 35.93726 -113.02005 37911 ft 424 kts 232°
2026-04-23 21:49 35.89620 -113.07213 37913 ft 424 kts 232°
2026-04-23 21:50 35.85483 -113.12451 37909 ft 426 kts 231°
2026-04-23 21:50 35.81336 -113.17694 37917 ft 428 kts 231°
2026-04-23 21:51 35.77182 -113.22935 37914 ft 428 kts 231°
2026-04-23 21:51 35.73017 -113.28182 37911 ft 428 kts 231°
2026-04-23 21:52 35.68853 -113.33424 37907 ft 429 kts 231°
2026-04-23 21:52 35.64684 -113.38658 37902 ft 428 kts 231°
2026-04-23 21:53 35.60511 -113.43892 37891 ft 429 kts 231°
2026-04-23 21:53 35.56355 -113.49095 37894 ft 431 kts 230°
2026-04-23 21:54 35.52144 -113.54360 37895 ft 433 kts 230°
2026-04-23 21:54 35.47920 -113.59631 37905 ft 433 kts 230°
2026-04-23 21:55 35.43695 -113.64895 37928 ft 433 kts 230°
2026-04-23 21:55 35.39464 -113.70158 37948 ft 433 kts 230°
2026-04-23 21:56 35.35232 -113.75415 37978 ft 433 kts 230°
2026-04-23 21:56 35.30993 -113.80673 38008 ft 434 kts 230°
2026-04-23 21:57 35.26756 -113.85919 37971 ft 434 kts 230°
2026-04-23 21:57 35.22507 -113.91173 38008 ft 434 kts 230°
2026-04-23 21:58 35.18263 -113.96411 38007 ft 434 kts 230°
2026-04-23 21:58 35.14019 -114.01641 37884 ft 434 kts 230°
2026-04-23 21:59 35.09762 -114.06878 37884 ft 434 kts 230°
2026-04-23 21:59 35.05505 -114.12108 37883 ft 435 kts 230°
2026-04-23 22:00 34.99169 -114.19877 37883 ft 436 kts 230°
2026-04-23 22:00 34.94886 -114.25118 37861 ft 435 kts 229°
2026-04-23 22:01 34.90613 -114.30337 37884 ft 434 kts 229°
2026-04-23 22:01 34.86359 -114.35528 37887 ft 433 kts 229°
2026-04-23 22:02 34.82095 -114.40721 37918 ft 434 kts 229°
2026-04-23 22:02 34.77821 -114.45921 37928 ft 436 kts 229°
2026-04-23 22:03 34.73470 -114.51070 37930 ft 437 kts 227°
2026-04-23 22:03 34.69021 -114.56109 37935 ft 437 kts 227°
2026-04-23 22:04 34.64581 -114.61160 37926 ft 437 kts 227°
2026-04-23 22:04 34.60152 -114.66206 37923 ft 435 kts 227°
2026-04-23 22:05 34.55741 -114.71227 37915 ft 434 kts 227°
2026-04-23 22:05 34.51337 -114.76235 37906 ft 434 kts 227°
2026-04-23 22:06 34.46931 -114.81239 37911 ft 434 kts 227°
2026-04-23 22:06 34.42514 -114.86246 37909 ft 434 kts 227°
2026-04-23 22:07 34.38104 -114.91239 37906 ft 434 kts 227°
2026-04-23 22:07 34.33691 -114.96226 37906 ft 434 kts 227°
2026-04-23 22:08 34.29276 -115.01209 37902 ft 433 kts 227°
2026-04-23 22:08 34.24903 -115.06137 37920 ft 433 kts 227°
2026-04-23 22:09 34.20462 -115.11135 37920 ft 433 kts 227°
2026-04-23 22:09 34.16080 -115.16058 37923 ft 433 kts 227°
2026-04-23 22:10 34.11666 -115.21009 37934 ft 434 kts 227°
2026-04-23 22:10 34.07244 -115.25962 37931 ft 433 kts 227°
2026-04-23 22:11 34.02821 -115.30910 37936 ft 433 kts 227°
2026-04-23 22:11 33.98432 -115.35808 37611 ft 422 kts 227°
2026-04-23 22:12 33.96301 -115.38181 37329 ft 413 kts 227°
2026-04-23 22:12 33.94210 -115.40510 36930 ft 407 kts 227°
2026-04-23 22:12 33.92140 -115.42817 36432 ft 403 kts 227°
2026-04-23 22:12 33.90092 -115.45099 35899 ft 400 kts 227°
2026-04-23 22:13 33.88055 -115.47367 35392 ft 398 kts 227°
2026-04-23 22:13 33.86029 -115.49620 34877 ft 395 kts 227°
2026-04-23 22:13 33.84017 -115.51855 34389 ft 393 kts 227°
2026-04-23 22:13 33.82016 -115.54078 33888 ft 391 kts 227°
2026-04-23 22:14 33.80018 -115.56296 33332 ft 392 kts 227°
2026-04-23 22:14 33.78017 -115.58517 32776 ft 392 kts 227°
2026-04-23 22:14 33.76016 -115.60733 32243 ft 390 kts 227°
2026-04-23 22:14 33.74021 -115.62942 31705 ft 389 kts 227°
2026-04-23 22:15 33.72029 -115.65146 31192 ft 390 kts 227°
2026-04-23 22:15 33.70027 -115.67363 30707 ft 393 kts 227°
2026-04-23 22:15 33.68009 -115.69594 30262 ft 395 kts 227°
2026-04-23 22:15 33.65990 -115.71824 29773 ft 395 kts 227°
2026-04-23 22:16 33.63977 -115.74044 29238 ft 390 kts 227°
2026-04-23 22:16 33.62079 -115.76329 28723 ft 382 kts 233°
2026-04-23 22:16 33.60490 -115.78846 28224 ft 376 kts 238°
2026-04-23 22:16 33.59008 -115.81408 27719 ft 372 kts 238°
2026-04-23 22:17 33.57545 -115.83959 27245 ft 371 kts 239°
2026-04-23 22:17 33.56082 -115.86506 26776 ft 371 kts 239°
2026-04-23 22:17 33.54614 -115.89054 26342 ft 371 kts 238°
2026-04-23 22:17 33.53145 -115.91599 25895 ft 371 kts 239°
2026-04-23 22:18 33.51680 -115.94133 25471 ft 370 kts 239°
2026-04-23 22:18 33.50222 -115.96664 25031 ft 369 kts 239°
2026-04-23 22:18 33.48757 -115.99193 24627 ft 370 kts 238°
2026-04-23 22:18 33.47285 -116.01728 24236 ft 370 kts 238°
2026-04-23 22:19 33.45818 -116.04254 23882 ft 369 kts 238°
2026-04-23 22:19 33.44353 -116.06777 23516 ft 369 kts 238°
2026-04-23 22:19 33.42888 -116.09298 23089 ft 368 kts 238°
2026-04-23 22:19 33.41434 -116.11800 22665 ft 366 kts 239°
2026-04-23 22:20 33.39984 -116.14292 22245 ft 364 kts 239°
2026-04-23 22:20 33.38543 -116.16766 21825 ft 361 kts 238°
2026-04-23 22:20 33.37112 -116.19223 21424 ft 359 kts 239°
2026-04-23 22:20 33.35684 -116.21675 20974 ft 357 kts 239°
2026-04-23 22:21 33.34172 -116.24012 20528 ft 357 kts 231°
2026-04-23 22:21 33.32221 -116.25869 20083 ft 362 kts 216°
2026-04-23 22:21 33.29991 -116.27270 19649 ft 362 kts 212°
2026-04-23 22:21 33.27728 -116.28578 19207 ft 360 kts 212°
2026-04-23 22:22 33.25492 -116.29868 18747 ft 358 kts 212°
2026-04-23 22:22 33.23264 -116.31160 18600 ft 355 kts 212°
2026-04-23 22:22 33.21051 -116.32448 17809 ft 352 kts 212°
2026-04-23 22:22 33.18859 -116.33727 17368 ft 350 kts 212°
2026-04-23 22:23 33.16704 -116.34985 16946 ft 348 kts 212°
2026-04-23 22:23 33.14541 -116.36249 16575 ft 344 kts 212°
2026-04-23 22:23 33.12418 -116.37485 16310 ft 334 kts 212°
2026-04-23 22:23 33.10361 -116.38682 15947 ft 328 kts 212°
2026-04-23 22:24 33.08323 -116.39872 15548 ft 324 kts 212°
2026-04-23 22:24 33.06312 -116.41048 15147 ft 322 kts 212°
2026-04-23 22:24 33.04308 -116.42220 14770 ft 319 kts 212°
2026-04-23 22:24 33.02324 -116.43376 14447 ft 314 kts 212°
2026-04-23 22:25 33.00454 -116.44606 14198 ft 300 kts 220°
2026-04-23 22:25 32.98829 -116.46109 13877 ft 293 kts 225°
2026-04-23 22:25 32.97290 -116.47667 13397 ft 290 kts 226°
2026-04-23 22:25 32.95777 -116.49211 12860 ft 290 kts 225°
2026-04-23 22:26 32.94237 -116.50773 12536 ft 284 kts 225°
2026-04-23 22:26 32.92739 -116.52292 12207 ft 281 kts 225°
2026-04-23 22:26 32.91261 -116.53787 11854 ft 278 kts 225°
2026-04-23 22:26 32.89806 -116.55258 11502 ft 277 kts 225°
2026-04-23 22:27 32.88321 -116.56756 11127 ft 275 kts 224°
2026-04-23 22:27 32.86843 -116.58246 10814 ft 281 kts 224°
2026-04-23 22:27 32.85373 -116.59728 10491 ft 282 kts 224°
2026-04-23 22:27 32.83879 -116.61231 10133 ft 281 kts 224°
2026-04-23 22:28 32.82383 -116.62738 9628 ft 283 kts 223°
2026-04-23 22:28 32.80881 -116.64251 9189 ft 282 kts 223°
2026-04-23 22:28 32.79392 -116.65749 8829 ft 279 kts 223°
2026-04-23 22:28 32.77933 -116.67261 8468 ft 278 kts 226°
2026-04-23 22:29 32.76787 -116.69020 8157 ft 275 kts 240°
2026-04-23 22:29 32.75818 -116.71021 7807 ft 274 kts 243°
2026-04-23 22:29 32.74896 -116.73001 7469 ft 271 kts 243°
2026-04-23 22:29 32.73980 -116.74958 7132 ft 271 kts 242°
2026-04-23 22:30 32.73056 -116.76920 6801 ft 273 kts 243°
2026-04-23 22:30 32.72125 -116.78889 6466 ft 274 kts 243°
2026-04-23 22:30 32.71194 -116.80862 6111 ft 273 kts 242°
2026-04-23 22:30 32.70407 -116.82900 5815 ft 268 kts 249°
2026-04-23 22:31 32.69765 -116.84920 5639 ft 257 kts 250°
2026-04-23 22:31 32.69161 -116.86869 5488 ft 247 kts 250°
2026-04-23 22:31 32.68580 -116.88746 5319 ft 239 kts 251°
2026-04-23 22:31 32.68034 -116.90589 5018 ft 236 kts 251°
2026-04-23 22:32 32.67501 -116.92435 4682 ft 235 kts 251°
2026-04-23 22:32 32.67328 -116.93692 4449 ft 234 kts 272°
2026-04-23 22:32 32.67675 -116.95550 4188 ft 229 kts 288°
2026-04-23 22:32 32.68168 -116.97331 3958 ft 224 kts 287°
2026-04-23 22:33 32.68612 -116.99055 3888 ft 211 kts 285°
2026-04-23 22:33 32.68986 -117.00688 3742 ft 203 kts 284°
2026-04-23 22:33 32.69344 -117.02294 3356 ft 200 kts 284°
2026-04-23 22:33 32.69712 -117.03865 2991 ft 193 kts 285°
2026-04-23 22:34 32.70060 -117.05367 2685 ft 184 kts 284°
2026-04-23 22:34 32.70409 -117.06781 2384 ft 174 kts 287°
2026-04-23 22:34 32.70720 -117.07976 2083 ft 169 kts 287°
2026-04-23 22:34 32.71020 -117.09193 1805 ft 163 kts 285°
2026-04-23 22:35 32.71307 -117.10442 1590 ft 155 kts 284°
2026-04-23 22:35 32.71588 -117.11650 1332 ft 149 kts 284°
2026-04-23 22:35 32.71856 -117.12788 1082 ft 135 kts 285°
2026-04-23 22:35 32.72099 -117.13810 916 ft 128 kts 284°
2026-04-23 22:36 32.72343 -117.14823 715 ft 129 kts 285°
2026-04-23 22:36 32.72602 -117.15871 572 ft 137 kts 283°
2026-04-23 22:36 32.72864 -117.16948 314 ft 136 kts 286°
2026-04-23 22:36 32.73120 -117.17998 84 ft 133 kts 285°
2026-04-23 22:37 32.73302 -117.18738 27 ft 124 kts 286°
2026-04-23 22:37 32.73481 -117.19484 30 ft 87 kts 286°
2026-04-23 22:37 32.73603 -117.19987 30 ft 46 kts 286°
2026-04-23 22:37 32.73671 -117.20262 29 ft 26 kts 286°
2026-04-23 22:38 32.73670 -117.20403 29 ft 14 kts 231°
2026-04-23 22:38 32.73625 -117.20425 29 ft 0 kts 195°
2026-04-23 22:39 32.73615 -117.20436 29 ft 4 kts 228°
2026-04-23 22:39 32.73605 -117.20490 29 ft 8 kts 267°
2026-04-23 22:39 32.73605 -117.20563 29 ft 10 kts 270°
2026-04-23 22:40 32.73576 -117.20642 29 ft 11 kts 222°
2026-04-23 22:40 32.73495 -117.20666 29 ft 13 kts 184°
2026-04-23 22:40 32.73403 -117.20655 29 ft 5 kts 163°
2026-04-23 22:41 32.73385 -117.20648 29 ft 0 kts 163°
2026-04-23 22:41 32.73379 -117.20646 29 ft 4 kts 163°
2026-04-23 22:41 32.73350 -117.20636 29 ft 5 kts 165°
2026-04-23 22:42 32.73334 -117.20633 29 ft 2 kts 170°
2026-04-23 22:42 32.73320 -117.20631 29 ft 1 kts 174°
2026-04-23 22:42 32.73309 -117.20630 29 ft 0 kts 178°